"2022-11-08 00:01:00",3192165,5.997334,184.3324,4.466852,0.7547048,7.51,0,3.714,182.8671,6.017504,0.7301671,5.08,0,-999,0,12.59,84.6,12.6,12.59,0.2,0,0,13.31,13.24,0.2,101.0633,3.239,3.241,3.239,100,0,0,0,386.5,133.6,133.6
"2022-11-08 00:02:00",3192166,6.794668,188.802,6.822329,0.8018883,8.04,0,4.671333,186.0618,8.506769,0.4870436,5.5,0,-999,0,12.65,84.2,12.67,12.69,0.2,0,0,13.3,13.23,0.2,101.0609,3.238,3.239,3.238,100,0,0,0,386.5,133.6,133.6
"2022-11-08 00:03:00",3192167,6.803334,187.8621,5.197712,0.8166328,8.33,0,4.21,187.1343,5.780203,0.7528612,5.76,0,-999,0,12.77,83.6,12.78,12.84,0.2,0,0,13.29,13.25,0.2,101.0643,3.237,3.239,3.237,100,0,0,0,386.5,133.6,133.6
"2022-11-08 00:04:00",3192168,5.600666,188.0004,4.82989,0.4575948,6.74,0,3.903333,189.7345,6.348917,0.6720681,5.23,0,-999,0,12.8,83.6,12.8,12.84,0.2,0,0,13.28,13.24,0.2,101.0631,3.237,3.237,3.237,100,0,0,0,386.5,133.6,133.6
"2022-11-08 00:05:00",3192169,6.018667,184.9314,3.713327,0.7852802,7.68,0,4.042666,180.6819,8.333134,0.6612459,5.17,0,-999,0,12.73,84.1,12.78,12.76,0.2,0,0,13.28,13.23,0.2,101.0656,3.235,3.237,3.235,100,0,0,0,386.5,133.6,133.6
"2022-11-08 00:06:00",3192170,6.516667,185.4633,5.312379,0.7319441,8.15,0,4.969333,182.6651,5.972933,0.7798331,7.01,0,-999,0,12.78,83.6,12.81,12.83,0.2,0,0,13.27,13.25,0.2,101.0622,3.235,3.235,3.235,100,0,0,0,386.5,133.6,133.6
"2022-11-08 00:07:00",3192171,5.942667,187.0009,2.555333,0.6230834,7.05,0,4.693334,186.2157,6.921241,0.7757462,6.45,0,-999,0,12.79,83.8,12.81,12.81,0.2,0,0,13.26,13.24,0.2,101.067,3.234,3.235,3.234,100,0,0,0,386.5,133.6,133.6
"2022-11-08 00:08:00",3192172,6.138666,188.8667,4.469337,0.8739403,7.23,0,4.833333,183.5355,7.309379,0.8115554,6.16,0,-999,0,12.8,83.8,12.81,12.81,0.2,0,0,13.26,13.23,0.2,101.0649,3.233,3.234,3.233,100,0,0,0,386.5,133.6,133.6
"2022-11-08 00:09:00",3192173,5.934,186.8,3.309911,0.6733875,7.38,0,4.565333,185.1283,5.133789,0.5433215,5.62,0,-999,0,12.85,83.3,12.84,12.86,0.2,0,0,13.26,13.23,0.2,101.0669,3.233,3.233,3.233,100,0,0,0,386.5,133.6,133.6
"2022-11-08 00:10:00",3192174,5.552,190.4015,5.159701,0.4259138,6.37,0,3.801333,187.2632,4.310017,0.5464781,5.15,0,-999,0,12.79,83.9,12.81,12.8,0.2,0,0,13.26,13.23,0.2,101.0682,3.231,3.233,3.231,100,0,0,0,386.5,133.6,133.6
"2022-11-08 00:11:00",3192175,5.332666,188.8645,5.486165,0.4972519,6.23,0,4.428667,189.8684,6.81866,0.3442647,5.11,0,-999,0,12.72,84.1,12.77,12.75,0.2,0,0,13.26,13.23,0.2,101.0699,3.231,3.232,3.231,100,0,0,0,386.5,133.6,133.6
"2022-11-08 00:12:00",3192176,5.006,187.0682,4.089003,0.3861398,6.02,0,3.881333,187.0641,4.846803,0.4802758,4.79,0,-999,0,12.67,84.5,12.73,12.66,0.2,0,0,13.26,13.23,0.2,101.071,3.231,3.231,3.231,100,0,0,0,386.5,133.6,133.6
"2022-11-08 00:13:00",3192177,5.017334,190.8659,4.702034,0.4861476,5.83,0,4.15,192.265,4.779603,0.5429057,5,0,-999,0,12.6,84.8,12.65,12.58,0.2,0,0,13.26,13.23,0.2,101.0678,3.231,3.231,3.231,100,0,0,0,386.5,133.6,133.6
"2022-11-08 00:14:00",3192178,4.905334,187.0617,7.344021,0.4948921,5.71,0,3.950667,189.0643,5.891036,0.6604289,5.13,0,-999,0,12.52,85,12.6,12.53,0.2,0,0,13.26,13.24,0.2,101.0671,3.231,3.231,3.231,100,0,0,0,386.5,133.6,133.6
"2022-11-08 00:15:00",3192179,5.331334,188.1343,4.317668,0.9305043,7.57,0,3.74,189.7338,5.590138,0.8071431,5.25,0,-999,0,12.57,84.5,12.62,12.61,0.2,0,0,13.24,13.24,0.2,101.0738,3.231,3.231,3.231,100,0,0,0,386.5,133.6,133.6
"2022-11-08 00:16:00",3192180,6.240001,181.7311,5.470036,0.6732112,7.26,0,4.612667,182.3984,7.477158,0.8997739,6.63,0,-999,0,12.65,84,12.66,12.68,0.2,0,0,13.23,13.25,0.2,101.0667,3.231,3.231,3.231,100,0,0,0,386.5,133.6,133.6
"2022-11-08 00:17:00",3192181,6.35,185.3328,3.787899,0.4399242,7.16,0,4.351334,186.8697,6.383941,0.5251015,5.5,0,-999,0,12.7,83.8,12.71,12.76,0.2,0,0,13.23,13.24,0.2,101.0651,3.231,3.231,3.231,100,0,0,0,386.5,133.6,133.6
"2022-11-08 00:18:00",3192182,5.663334,185.7869,7.676334,0.6982803,6.86,0,4.526666,185.8468,8.204999,0.709748,5.66,0,-999,0,12.7,83.7,12.75,12.77,0.2,0,0,13.23,13.24,0.2,101.0672,3.231,3.231,3.231,100,0,0,0,386.5,133.6,133.6
"2022-11-08 00:19:00",3192183,5.46,183.9313,7.201483,0.5579247,6.28,0,4.367333,184.911,8.568648,0.6742449,5.37,0,-999,0,12.69,84,12.7,12.71,0.2,0,0,13.23,13.24,0.2,101.073,3.231,3.231,3.231,100,0,0,0,386.5,133.6,133.6
"2022-11-08 00:20:00",3192184,6.543334,182.1333,4.04647,0.7574226,8.09,0,4.761333,182.5935,5.272904,0.7887278,6.44,0,-999,0,12.61,84,12.67,12.65,0.2,0,0,13.21,13.23,0.2,101.0661,3.231,3.231,3.231,100,0,0,0,386.5,133.6,133.6
"2022-11-08 00:21:00",3192185,6.302667,181.5989,4.555562,0.4655243,7.27,0,4.568666,180.1965,5.50033,0.5768982,5.75,0,-999,0,12.69,83.8,12.69,12.7,0.2,0,0,13.21,13.22,0.2,101.0729,3.231,3.231,3.231,100,0,0,0,386.5,133.6,133.6
"2022-11-08 00:22:00",3192186,6.38,182.5331,2.629521,0.6147844,7.23,0,4.768,179.7892,7.532781,0.529971,5.62,0,-999,0,12.73,83.5,12.75,12.77,0.2,0,0,13.19,13.23,0.2,101.0678,3.231,3.231,3.229,100,0,0,0,386.5,133.6,133.6
"2022-11-08 00:23:00",3192187,5.286666,181.07,6.014094,0.5872725,6.15,0,4.031333,185.0674,4.998036,0.66014,5.1,0,-999,0,12.71,83.5,12.73,12.75,0.2,0,0,13.18,13.23,0.2,101.0684,3.231,3.231,3.229,100,0,0,0,386.5,133.6,133.6
"2022-11-08 00:24:00",3192188,5.722,182.3872,6.442062,0.6403249,7.13,0,4.616,178.5819,6.083946,0.5985516,6.21,0,-999,0,12.7,83.7,12.69,12.7,0.2,0,0,13.16,13.23,0.2,101.0656,3.231,3.231,3.229,100,0,0,0,386.5,133.6,133.6
"2022-11-08 00:25:00",3192189,6.006667,181.6665,3.608258,0.4162959,6.56,0,4.229333,182.9938,5.930611,0.3432291,4.82,0,-999,0,12.57,84.1,12.63,12.59,0.2,0,0,13.16,13.25,0.2,101.0661,3.231,3.231,3.229,100,0,0,0,386.5,133.6,133.6
"2022-11-08 00:26:00",3192190,5.561999,183.9288,5.481315,0.5317293,6.55,0,3.95,181.6589,6.658445,0.6608177,4.89,0,-999,0,12.49,84.5,12.54,12.5,0.2,0,0,13.14,13.24,0.2,101.0646,3.231,3.231,3.229,100,0,0,0,386.5,133.6,133.6
"2022-11-08 00:27:00",3192191,5.533333,180.999,3.326402,0.5063815,6.39,0,3.468667,181.4768,6.622352,0.4216613,4.23,0,-999,0,12.46,84.4,12.51,12.49,0.2,0,0,13.14,13.24,0.2,101.0668,3.231,3.231,3.231,100,0,0,0,386.5,133.6,133.6
"2022-11-08 00:28:00",3192192,6.079333,182.9945,5.462342,0.9328555,8.24,0,4.13,179.4081,8.299996,0.6845825,5,0,-999,0,12.42,84.6,12.49,12.45,0.2,0,0,13.13,13.22,0.2,101.0617,3.231,3.231,3.231,100,0,0,0,386.5,133.6,133.6
"2022-11-08 00:29:00",3192193,6.220665,182.6003,2.576638,0.4713734,6.98,0,4.34,180.6675,3.154834,0.5788954,5.5,0,-999,0,12.44,84.3,12.49,12.48,0.2,0,0,13.11,13.24,0.2,101.0653,3.231,3.231,3.231,100,0,0,0,386.5,133.6,133.6
"2022-11-08 00:30:00",3192194,6.082667,177.0742,6.429262,0.9415128,8.8,0,4.531333,174.7993,4.85882,1.038017,7.26,0,-999,0,12.34,84.9,12.4,12.36,0.2,0,0,13.09,13.22,0.2,101.0646,3.229,3.231,3.228,100,0,0,0,386.5,133.6,133.6
"2022-11-08 00:31:00",3192195,6.898666,178.8024,4.548198,0.7911498,8.53,0,5.079333,176.6684,7.118127,0.7969647,6.4,0,-999,0,12.38,84.7,12.44,12.42,0.2,0,0,13.09,13.22,0.2,101.0611,3.229,3.231,3.228,100,0,0,0,386.5,133.6,133.6
"2022-11-08 00:32:00",3192196,6.675333,180.7982,3.985423,0.4616473,7.36,0,4.836667,177.5334,3.980913,0.9143645,6.11,0,-999,0,12.44,84.3,12.48,12.5,0.2,0,0,13.06,13.23,0.2,101.0607,3.229,3.229,3.228,100,0,0,0,386.5,133.6,133.6
"2022-11-08 00:33:00",3192197,6.01,178.1951,4.803553,0.5560216,7.25,0,4.690667,175.9303,5.246158,0.6001829,5.65,0,-999,0,12.5,84.2,12.5,12.53,0.2,0,0,13.05,13.24,0.2,101.0656,3.228,3.229,3.228,100,0,0,0,386.5,133.6,133.6
"2022-11-08 00:34:00",3192198,6.056,178.2642,5.296415,0.4835397,6.76,0,3.805333,175.866,4.909648,0.6019509,4.85,0,-999,0,12.41,84.6,12.44,12.43,0.2,0,0,13.04,13.21,0.2,101.0638,3.228,3.228,3.228,100,0,0,0,386.5,133.6,133.6
"2022-11-08 00:35:00",3192199,6.4,177.803,4.243615,0.667303,7.7,0,4.150666,172.9205,6.80744,0.5608621,5.19,0,-999,0,12.33,84.7,12.39,12.38,0.2,0,0,13.02,13.25,0.2,101.0606,3.228,3.228,3.228,100,0,0,0,386.5,133.6,133.6
"2022-11-08 00:36:00",3192200,6.366,179.9337,6.450917,0.4881229,7.12,0,4.146667,181.8436,7.475473,0.5007949,5.54,0,-999,0,12.39,84.5,12.4,12.39,0.2,0,0,13,13.22,0.2,101.0644,3.227,3.228,3.226,100,0,0,0,386.5,133.6,133.6
"2022-11-08 00:37:00",3192201,5.786667,177.9983,4.814493,0.6704394,6.83,0,4.236667,179.1978,7.33892,0.5419922,5.13,0,-999,0,12.4,84.5,12.39,12.4,0.2,0,0,12.97,13.21,0.2,101.0575,3.226,3.228,3.226,100,0,0,0,386.5,133.6,133.6
"2022-11-08 00:38:00",3192202,5.456001,174.8701,5.10875,0.5341884,6.31,0,4.298667,170.7965,8.532322,0.5817544,5.22,0,-999,0,12.28,85.1,12.32,12.28,0.2,0,0,12.95,13.24,0.2,101.0597,3.226,3.226,3.226,100,0,0,0,386.5,133.6,133.6
"2022-11-08 00:39:00",3192203,6.008667,176.0668,4.751893,0.7644507,7.17,0,4.328001,169.9328,5.207625,0.6556748,5.76,0,-999,0,12.2,85.5,12.24,12.22,0.2,0,0,12.93,13.23,0.2,101.0583,3.226,3.226,3.226,100,0,0,0,386.5,133.6,133.6
"2022-11-08 00:40:00",3192204,6.197333,173.7333,2.541802,0.3731214,6.7,0,4.394,172.5325,7.130327,0.8599828,6.45,0,-999,0,12.12,85.6,12.2,12.18,0.2,0,0,12.92,13.23,0.2,101.0575,3.226,3.226,3.225,100,0,0,0,386.5,133.6,133.6
"2022-11-08 00:41:00",3192205,6.146667,174.0693,5.180659,0.5352216,7.06,0,4.152,175.0682,5.371602,0.8050193,5.66,0,-999,0,12.11,85.6,12.17,12.15,0.2,0,0,12.9,13.23,0.2,101.0551,3.225,3.226,3.225,100,0,0,0,386.5,133.6,133.6
"2022-11-08 00:42:00",3192206,5.673333,176.2694,4.388065,0.4315811,6.67,0,4.638666,175.7316,3.957117,0.6987786,6.37,0,-999,0,12.09,85.8,12.15,12.12,0.2,0,0,12.88,13.24,0.2,101.0559,3.224,3.225,3.224,100,0,0,0,386.5,133.6,133.6
"2022-11-08 00:43:00",3192207,5.297333,179.3317,3.278414,0.4995127,6.02,0,4.494667,175.4679,5.401438,0.484078,5.06,0,-999,0,12.07,85.9,12.1,12.08,0.2,0,0,12.87,13.22,0.2,101.0577,3.224,3.224,3.224,100,0,0,0,386.5,133.6,133.6
"2022-11-08 00:44:00",3192208,6.062666,178.0644,3.800832,0.6081827,7.04,0,3.814667,178.336,4.451183,0.6244771,4.77,0,-999,0,11.95,86.3,12.02,11.98,0.2,0,0,12.84,13.24,0.2,101.0534,3.224,3.224,3.224,100,0,0,0,386.5,133.6,133.6
"2022-11-08 00:45:00",3192209,5.608666,175.1316,4.482664,0.5464048,6.71,0,3.809334,172.436,9.715847,0.6086101,4.97,0,-999,0,12,86.3,12.04,12.01,0.2,0,0,12.84,13.22,0.2,101.0502,3.224,3.224,3.222,100,0,0,0,386.5,133.6,133.6
"2022-11-08 00:46:00",3192210,5.913333,171.0667,2.264544,0.3910101,6.43,0,4.354667,167.6622,5.661235,0.5306709,5.07,0,-999,0,12,86.4,12.01,11.99,0.2,0,0,12.81,13.22,0.2,101.0517,3.222,3.223,3.222,100,0,0,0,386.5,133.6,133.6
"2022-11-08 00:47:00",3192211,5.836667,175.7972,6.409276,0.5005819,7,0,3.746667,175.7994,6.956387,0.3999777,4.39,0,-999,0,11.93,86.6,11.99,11.95,0.2,0,0,12.79,13.24,0.2,101.0488,3.221,3.222,3.221,100,0,0,0,386.5,133.6,133.6
"2022-11-08 00:48:00",3192212,5.562666,174.0023,3.947728,0.4557845,6.45,0,3.979334,176.601,6.969814,0.8114798,5.25,0,-999,0,11.95,86.5,11.97,11.95,0.2,0,0,12.77,13.22,0.2,101.0521,3.22,3.221,3.22,100,0,0,0,386.5,133.6,133.6
"2022-11-08 00:49:00",3192213,6.082,173.7348,3.658862,0.454022,7.24,0,4.000667,172.2632,6.325873,0.5983475,4.91,0,-999,0,11.89,86.7,11.92,11.89,0.2,0,0,12.75,13.24,0.2,101.0505,3.22,3.221,3.22,100,0,0,0,386.5,133.6,133.6
"2022-11-08 00:50:00",3192214,6.335333,177.9246,5.061494,0.5452812,7.46,0,4.648666,173.5373,6.160505,0.6568902,6.09,0,-999,0,11.89,86.7,11.91,11.9,0.2,0,0,12.74,13.23,0.2,101.0492,3.219,3.22,3.219,100,0,0,0,386.5,133.6,133.6
"2022-11-08 00:51:00",3192215,5.335333,172.4046,3.551722,0.5241738,6.28,0,4.224,170.7207,7.672791,0.8921569,6.39,0,-999,0,11.87,86.7,11.89,11.88,0.2,0,0,12.71,13.23,0.2,101.0431,3.218,3.219,3.218,100,0,0,0,386.5,133.6,133.6
"2022-11-08 00:52:00",3192216,5.623333,173.2003,3.389634,0.3314144,6.41,0,3.937334,170.9995,3.032544,0.5867704,5.25,0,-999,0,11.8,87.1,11.84,11.8,0.2,0,0,12.7,13.25,0.2,101.0465,3.218,3.218,3.218,100,0,0,0,386.5,133.6,133.6
"2022-11-08 00:53:00",3192217,5.446666,174.47,3.609944,0.3769998,6.33,0,3.880666,175.87,5.172484,0.4668256,5.08,0,-999,0,11.73,87.2,11.78,11.74,0.2,0,0,12.68,13.21,0.2,101.0459,3.217,3.218,3.217,100,0,0,0,386.5,133.6,133.6
"2022-11-08 00:54:00",3192218,6.592666,172.6687,4.09258,1.040766,8.24,0,4.386,169.8669,4.571908,0.6418494,5.42,0,-999,0,11.72,87.4,11.78,11.75,0.2,0,0,12.66,13.23,0.2,101.0443,3.216,3.217,3.216,100,0,0,0,386.5,133.6,133.6
"2022-11-08 00:55:00",3192219,6.594666,171.7996,2.196709,0.695278,7.88,0,4.460667,171.8009,3.369493,0.3270365,5.1,0,-999,0,11.87,86.8,11.88,11.89,0.2,0,0,12.65,13.21,0.2,101.0406,3.214,3.216,3.214,100,0,0,0,386.5,133.6,133.6
"2022-11-08 00:56:00",3192220,5.764,172.8004,3.505573,0.4652999,6.62,0,4.256667,171.4627,6.008087,0.6277755,5.5,0,-999,0,11.86,86.8,11.86,11.87,0.2,0,0,12.63,13.24,0.2,101.044,3.213,3.214,3.213,100,0,0,0,386.5,133.6,133.6
"2022-11-08 00:57:00",3192221,5.351333,174.205,4.350581,0.523754,6.25,0,3.920666,170.5259,5.312118,0.3980531,4.6,0,-999,0,11.8,87.2,11.82,11.82,0.2,0,0,12.6,13.25,0.2,101.0467,3.213,3.214,3.213,100,0,0,0,386.5,133.6,133.6
"2022-11-08 00:58:00",3192222,5.546,171.9311,3.990076,0.5999088,6.71,0,3.791333,167.4665,3.75655,0.451942,4.56,0,-999,0,11.71,87.4,11.77,11.75,0.2,0,0,12.58,13.22,0.2,101.04,3.211,3.211,3.211,100,0,0,0,386.5,133.6,133.6
"2022-11-08 00:59:00",3192223,6.064667,171.6678,5.078321,0.5634401,7.16,0,3.902,167.7383,6.805436,0.5631365,4.8,0,-999,0,11.7,87.6,11.74,11.71,0.2,0,0,12.56,13.24,0.2,101.0439,3.21,3.211,3.209,100,0,0,0,386.5,133.6,133.6
"2022-11-08 01:00:00",3192224,5.63,170.7353,4.416901,0.5263838,6.68,0,3.925333,172.0017,5.414876,0.5699223,5.08,0,-999,0,11.6,87.8,11.66,11.64,0.2,0,0,12.55,13.24,0.2,101.0438,3.209,3.21,3.209,100,0,0,0,386.5,133.6,133.6
"2022-11-08 01:01:00",3192225,4.892,176.5342,6.193131,0.6069508,6.02,0,4.353333,173.9331,2.593806,0.9028374,5.65,0,-999,0,11.52,88.1,11.61,11.59,0.2,0,0,12.53,13.23,0.2,101.0466,3.208,3.209,3.208,100,0,0,0,386.5,133.6,133.6
"2022-11-08 01:02:00",3192226,6.264,174.9316,3.836763,0.5379318,7.35,0,4.183333,171.2581,5.253246,0.5074336,5.08,0,-999,0,11.6,87.9,11.65,11.64,0.2,0,0,12.51,13.23,0.2,101.0468,3.207,3.208,3.207,100,0,0,0,386.5,133.6,133.6
"2022-11-08 01:03:00",3192227,5.894667,172.5981,3.94559,0.5757182,7.06,0,4.816,172.2012,4.748622,0.8014886,6.32,0,-999,0,11.7,87.6,11.69,11.69,0.2,0,0,12.49,13.21,0.2,101.044,3.205,3.207,3.205,100,0,0,0,386.5,133.6,133.6
"2022-11-08 01:04:00",3192228,5.667334,169.7341,3.107995,0.5190564,6.27,0,3.968667,163.4775,5.845315,0.4995046,4.76,0,-999,0,11.61,88,11.62,11.64,0.2,0,0,12.46,13.22,0.2,101.0433,3.205,3.205,3.205,100,0,0,0,386.5,133.6,133.6
"2022-11-08 01:05:00",3192229,5.951333,165.0028,4.031471,0.4443402,6.99,0,3.348,161.1359,5.710686,0.5138508,4.6,0,-999,0,11.53,88.3,11.59,11.59,0.2,0,0,12.45,13.22,0.2,101.0413,3.204,3.205,3.204,100,0,0,0,386.5,133.6,133.6
"2022-11-08 01:06:00",3192230,6.006667,167.4693,5.184249,0.4914423,6.8,0,3.830667,163.4696,6.247733,0.5879964,4.81,0,-999,0,11.52,88.3,11.59,11.58,0.2,0,0,12.43,13.2,0.2,101.0402,3.202,3.204,3.202,100,0,0,0,386.5,133.6,133.6
"2022-11-08 01:07:00",3192231,5.251334,168.0682,5.076984,0.6301414,6.49,0,4.255333,167.9976,7.333032,1.064699,6.72,0,-999,0,11.5,88.3,11.55,11.55,0.2,0,0,12.41,13.22,0.2,101.04,3.201,3.203,3.201,100,0,0,0,386.5,133.6,133.6
"2022-11-08 01:08:00",3192232,5.330667,169.5336,5.870781,0.8271112,6.57,0,3.96,169.5363,4.977226,0.4478988,4.78,0,-999,0,11.41,88.6,11.48,11.47,0.2,0,0,12.39,13.22,0.2,101.0457,3.2,3.201,3.2,100,0,0,0,386.5,133.6,133.6
"2022-11-08 01:09:00",3192233,5.344001,173.0671,2.743536,0.4734666,6.29,0,4.528,170.2026,5.177295,0.5109755,6.02,0,-999,0,11.4,88.6,11.45,11.44,0.2,0,0,12.37,13.22,0.2,101.0377,3.199,3.2,3.199,100,0,0,0,386.5,133.6,133.6
"2022-11-08 01:10:00",3192234,5.814666,179.9325,3.150387,0.5889637,6.61,0,4.174,175.6601,7.021048,0.363039,4.93,0,-999,0,11.43,88.5,11.49,11.46,0.2,0,0,12.35,13.22,0.2,101.0459,3.197,3.199,3.197,100,0,0,0,386.5,133.6,133.6
"2022-11-08 01:11:00",3192235,5.502667,176.4673,3.262523,0.7167469,6.54,0,3.839334,176.0013,7.104137,0.4277924,4.55,0,-999,0,11.5,88.2,11.52,11.53,0.2,0,0,12.33,13.22,0.2,101.048,3.197,3.197,3.197,100,0,0,0,386.5,133.6,133.6
"2022-11-08 01:12:00",3192236,5.272,173.4673,3.073611,0.5520652,6.29,0,3.486667,169.4784,5.577999,0.5531445,4.7,0,-999,0,11.49,88.4,11.5,11.5,0.2,0,0,12.31,13.23,0.2,101.0436,3.196,3.197,3.195,100,0,0,0,386.5,133.6,133.6
"2022-11-08 01:13:00",3192237,5.187333,173.1337,2.777544,0.3709891,6.02,0,3.635333,169.3999,6.399807,0.2943211,4.07,0,-999,0,11.4,88.7,11.43,11.43,0.2,0,0,12.28,13.22,0.2,101.0461,3.195,3.196,3.195,100,0,0,0,386.5,133.6,133.6
"2022-11-08 01:14:00",3192238,5.486,176.2009,4.429275,0.8497121,6.89,0,3.388,175.3292,5.98346,0.3220601,3.84,0,-999,0,11.29,89.1,11.35,11.34,0.2,0,0,12.28,13.23,0.2,101.0457,3.192,3.194,3.192,100,0,0,0,386.5,133.6,133.6
"2022-11-08 01:15:00",3192239,5.876667,172.666,4.583353,0.5334375,6.83,0,3.986,169.0623,6.644819,0.7557937,5.4,0,-999,0,11.23,89.2,11.33,11.3,0.2,0,0,12.25,13.25,0.2,101.0451,3.191,3.192,3.191,100,0,0,0,386.5,133.6,133.6
"2022-11-08 01:16:00",3192240,6.238667,171.6674,2.820087,0.5715811,7.58,0,4.440667,172.8676,3.363317,0.4988047,5.2,0,-999,0,11.39,88.6,11.45,11.45,0.2,0,0,12.23,13.21,0.2,101.0378,3.19,3.191,3.189,100,0,0,0,386.5,133.6,133.6
"2022-11-08 01:17:00",3192241,6.252667,171.1283,5.570168,0.2656681,6.72,0,4.034,165.1335,5.017428,0.6140554,5.3,0,-999,0,11.48,88.5,11.46,11.49,0.2,0,0,12.21,13.22,0.2,101.0409,3.187,3.189,3.187,100,0,0,0,386.5,133.6,133.6
"2022-11-08 01:18:00",3192242,5.634666,165.9338,3.394751,0.6285523,6.93,0,4.097333,164.9318,4.69538,0.5126854,4.87,0,-999,0,11.39,88.8,11.39,11.41,0.2,0,0,12.19,13.22,0.2,101.0397,3.186,3.187,3.186,100,0,0,0,386.5,133.6,133.6
"2022-11-08 01:19:00",3192243,5.871333,170.1359,4.896388,0.8486998,7.1,0,4.878,167.451,7.391882,0.8050525,6.2,0,-999,0,11.32,89,11.38,11.38,0.2,0,0,12.18,13.22,0.2,101.0424,3.184,3.186,3.184,100,0,0,0,386.5,133.6,133.6
"2022-11-08 01:20:00",3192244,6.036667,170.532,4.379145,0.5627156,6.82,0,4.590666,169.7619,7.368453,0.3328156,5.13,0,-999,0,11.31,88.9,11.37,11.38,0.2,0,0,12.16,13.23,0.2,101.0379,3.183,3.184,3.183,100,0,0,0,386.5,133.6,133.6
"2022-11-08 01:21:00",3192245,6.032667,170.8001,5.38054,0.6402027,7.52,0,4.462,165.4005,3.157847,0.6730944,5.65,0,-999,0,11.33,89,11.37,11.38,0.2,0,0,12.14,13.23,0.2,101.039,3.182,3.183,3.182,100,0,0,0,386.5,133.6,133.6
"2022-11-08 01:22:00",3192246,6.012666,168.804,5.111292,0.7674065,7.24,0,4.242667,167.9314,4.263936,0.4422286,5.22,0,-999,0,11.33,89,11.38,11.38,0.2,0,0,12.11,13.24,0.2,101.0402,3.18,3.182,3.18,100,0,0,0,386.5,133.6,133.6
"2022-11-08 01:23:00",3192247,5.712667,172.4075,4.752968,0.5751808,7.02,0,4.476,169.1946,7.256487,0.6811832,5.7,0,-999,0,11.3,89.2,11.35,11.35,0.2,0,0,12.09,13.22,0.2,101.0389,3.179,3.18,3.179,100,0,0,0,386.5,133.6,133.6
"2022-11-08 01:24:00",3192248,5.472666,172.4023,4.175038,0.4108928,6.33,0,4.027334,171.6665,4.343959,0.5512103,4.96,0,-999,0,11.26,89.4,11.32,11.31,0.2,0,0,12.09,13.21,0.2,101.0392,3.177,3.179,3.177,100,0,0,0,386.5,133.6,133.6
"2022-11-08 01:25:00",3192249,5.814,173.6662,3.552524,0.6048999,7.24,0,4.483334,174.2675,5.925487,0.6518043,5.67,0,-999,0,11.31,89.1,11.36,11.36,0.2,0,0,12.06,13.22,0.2,101.0372,3.174,3.177,3.174,100,0,0,0,386.5,133.6,133.6
"2022-11-08 01:26:00",3192250,6.286666,172.8002,4.938275,0.8271368,7.27,0,4.39,169.9982,6.129318,1.243527,6.79,0,-999,0,11.3,89.1,11.34,11.35,0.2,0,0,12.05,13.24,0.2,101.037,3.173,3.174,3.173,100,0,0,0,386.5,133.6,133.6
"2022-11-08 01:27:00",3192251,5.738,176.8665,1.499528,0.5285099,6.84,0,4.074667,176.5346,4.800296,0.4790249,4.98,0,-999,0,11.31,89,11.34,11.36,0.2,0,0,12.03,13.21,0.2,101.0333,3.17,3.172,3.17,100,0,0,0,386.5,133.6,133.6
"2022-11-08 01:28:00",3192252,5.929333,176.8055,6.119861,0.6222804,7.29,0,4.790667,173.4018,3.945092,0.8501095,6.31,0,-999,0,11.2,89.3,11.29,11.26,0.2,0,0,12.01,13.22,0.2,101.0352,3.169,3.17,3.168,100,0,0,0,386.5,133.6,133.6
"2022-11-08 01:29:00",3192253,6.188,174.5335,4.096153,0.7119944,7.19,0,4.902667,173.6636,9.513501,1.022947,7.42,0,-999,0,11.23,89.4,11.31,11.3,0.2,0,0,12,13.24,0.2,101.0331,3.167,3.169,3.167,100,0,0,0,386.5,133.6,133.6
"2022-11-08 01:30:00",3192254,5.428667,173.4002,3.241052,0.5850568,6.42,0,4.373334,172.7319,4.327327,0.5201239,5.63,0,-999,0,11.3,89.1,11.34,11.35,0.2,0,0,11.98,13.22,0.2,101.035,3.166,3.167,3.166,100,0,0,0,386.5,133.6,133.6
"2022-11-08 01:31:00",3192255,5.294,175.7422,5.047907,0.4057224,6.19,0,4.574,172.4656,4.376766,0.7218107,5.84,0,-999,0,11.31,89.2,11.35,11.36,0.2,0,0,11.96,13.24,0.2,101.0353,3.165,3.166,3.165,100,0,0,0,386.5,133.6,133.6
"2022-11-08 01:32:00",3192256,5.695334,173.868,2.984944,0.3950335,6.32,0,4.052667,172.5283,4.797591,0.8303851,5.47,0,-999,0,11.4,88.9,11.38,11.41,0.2,0,0,11.95,13.21,0.2,101.0314,3.163,3.165,3.163,100,0,0,0,386.5,133.6,133.6
"2022-11-08 01:33:00",3192257,6.068,173.5335,3.441895,0.3445422,6.86,0,4.305334,169.9963,6.180018,0.6023162,5.14,0,-999,0,11.33,89,11.34,11.37,0.2,0,0,11.93,13.21,0.2,101.0314,3.161,3.163,3.161,100,0,0,0,386.5,133.6,133.6
"2022-11-08 01:34:00",3192258,6.096667,171.8006,3.524773,0.4832206,6.95,0,4.589333,171.3922,5.743266,0.6159704,5.62,0,-999,0,11.4,88.9,11.38,11.41,0.2,0,0,11.91,13.23,0.2,101.0274,3.161,3.161,3.16,100,0,0,0,386.5,133.6,133.6
"2022-11-08 01:35:00",3192259,5.484667,171.2664,5.115911,0.4528262,6.16,0,3.878667,173.9353,6.102891,0.5342892,4.87,0,-999,0,11.4,88.8,11.41,11.43,0.2,0,0,11.91,13.23,0.2,101.0243,3.159,3.161,3.159,100,0,0,0,386.5,133.6,133.6
"2022-11-08 01:36:00",3192260,5.343333,169.9337,4.448025,0.6274144,6.68,0,4.117334,171.3346,3.003016,0.6088073,4.82,0,-999,0,11.47,88.7,11.44,11.48,0.2,0,0,11.89,13.22,0.2,101.0222,3.158,3.159,3.158,100,0,0,0,386.5,133.6,133.6
"2022-11-08 01:37:00",3192261,5.818667,173.3994,2.983958,0.8191448,7.4,0,4.639333,170.5357,4.270405,0.680906,5.6,0,-999,0,11.4,88.6,11.39,11.41,0.2,0,0,11.88,13.23,0.2,101.0205,3.154,3.157,3.154,100,0,0,0,386.5,133.6,133.6
"2022-11-08 01:38:00",3192262,6.148,171.6654,3.476349,0.6004354,7.17,0,4.437333,169.1998,3.726044,0.5964726,5.31,0,-999,0,11.48,88.5,11.47,11.49,0.2,0,0,11.86,13.21,0.2,101.0208,3.152,3.154,3.152,100,0,0,0,386.5,133.6,133.6
"2022-11-08 01:39:00",3192263,6.316667,173.0053,4.758344,0.6451632,7.94,0,4.231333,171.268,4.766252,0.6812818,5.45,0,-999,0,11.45,88.5,11.46,11.49,0.2,0,0,11.85,13.23,0.2,101.0221,3.15,3.152,3.15,100,0,0,0,386.5,133.6,133.6
"2022-11-08 01:40:00",3192264,6.498,170.0019,4.048047,0.5720513,7.5,0,5.169333,166.269,4.752141,0.4990186,6.34,0,-999,0,11.5,88.2,11.47,11.5,0.2,0,0,11.84,13.23,0.2,101.0188,3.148,3.149,3.147,100,0,0,0,386.5,133.6,133.6
"2022-11-08 01:41:00",3192265,5.159999,169.7315,3.730623,0.4345266,5.8,0,3.804667,166.4616,4.826,0.4965866,4.81,0,-999,0,11.44,88.5,11.42,11.44,0.2,0,0,11.82,13.24,0.2,101.0214,3.145,3.147,3.145,100,0,0,0,386.5,133.6,133.6
"2022-11-08 01:42:00",3192266,5.256667,169.0063,4.672901,0.7399429,6.8,0,3.692,166.8658,4.160428,0.4890153,4.71,0,-999,0,11.27,89,11.32,11.31,0.2,0,0,11.82,13.24,0.2,101.021,3.145,3.146,3.145,100,0,0,0,386.5,133.6,133.6
"2022-11-08 01:43:00",3192267,6.244667,174.1328,3.051653,0.2903071,6.67,0,3.934,171.6697,5.869941,0.7365758,5.11,0,-999,0,11.21,89.2,11.3,11.27,0.2,0,0,11.82,13.24,0.2,101.0214,3.145,3.146,3.145,100,0,0,0,386.5,133.6,133.6
"2022-11-08 01:44:00",3192268,5.528,170.7995,3.562423,0.2937391,6.35,0,3.609333,166.9351,3.766516,0.5177962,4.93,0,-999,0,11.26,89.1,11.32,11.28,0.2,0,0,11.8,13.23,0.2,101.021,3.144,3.145,3.144,100,0,0,0,386.5,133.6,133.6
"2022-11-08 01:45:00",3192269,5.128,167.9974,4.129985,0.4136537,5.82,0,3.810667,167.3331,4.404871,0.5940085,4.95,0,-999,0,11.21,89.3,11.27,11.25,0.2,0,0,11.79,13.24,0.2,101.0163,3.144,3.144,3.144,100,0,0,0,386.5,133.6,133.6
"2022-11-08 01:46:00",3192270,5.248,167.7961,5.427104,0.5962236,6.93,0,3.706,165.4001,3.516971,0.548158,4.66,0,-999,0,11.14,89.6,11.18,11.17,0.2,0,0,11.77,13.22,0.2,101.0162,3.143,3.144,3.143,100,0,0,0,386.5,133.6,133.6
"2022-11-08 01:47:00",3192271,5.891334,168.7333,3.021144,0.6369391,6.94,0,4.234,162.2701,7.042539,0.6481235,5.42,0,-999,0,11.04,90,11.12,11.09,0.2,0,0,11.77,13.24,0.2,101.0139,3.143,3.143,3.142,100,0,0,0,386.5,133.6,133.6